| time (UTC) | temp F | wind direction | speed knots | gust knots | rain 1hr in | rain 24hr in | rain mn in | humidity % | barometer mb |
| 20260505082345 | 57 | 242 | 0.0 | 0.9 | 0.00 | 0.00 | 0.00 | 83 | 1014.1 |
| 20260505081842 | 56 | 241 | 0.0 | 1.7 | 0.00 | 0.00 | 0.00 | 84 | 1014.0 |
| 20260505081339 | 56 | 237 | 0.0 | 0.9 | 0.00 | 0.00 | 0.00 | 84 | 1014.1 |
| 20260505080836 | 56 | 241 | 0.9 | 1.7 | 0.00 | 0.00 | 0.00 | 84 | 1014.1 |
| 20260505080331 | 56 | 232 | 0.0 | 0.0 | 0.00 | 0.00 | 0.00 | 84 | 1014.0 |
| 20260505075827 | 56 | 237 | 0.0 | 0.9 | 0.00 | 0.00 | 0.00 | 84 | 1013.9 |
| 20260505075324 | 56 | 232 | 0.0 | 0.9 | 0.00 | 0.00 | 0.00 | 84 | 1014.1 |
| 20260505074822 | 56 | 233 | 0.0 | 0.9 | 0.00 | 0.00 | 0.00 | 85 | 1014.0 |
| 20260505074319 | 56 | 239 | 0.0 | 2.6 | 0.00 | 0.00 | 0.00 | 87 | 1014.0 |
| 20260505073816 | 55 | 135 | 1.7 | 2.6 | 0.00 | 0.00 | 0.00 | 89 | 1014.0 |
| 20260505073314 | 55 | 232 | 0.0 | 0.0 | 0.00 | 0.00 | 0.00 | 91 | 1013.8 |
| 20260505072811 | 54 | 233 | 0.0 | 0.9 | 0.00 | 0.00 | 0.00 | 92 | 1014.0 |
| 20260505072307 | 54 | 243 | 0.0 | 0.0 | 0.00 | 0.00 | 0.00 | 94 | 1013.7 |
| 20260505071803 | 53 | 240 | 0.9 | 0.9 | 0.00 | 0.00 | 0.00 | 94 | 1013.6 |
| 20260505071259 | 53 | 227 | 0.0 | 0.9 | 0.00 | 0.00 | 0.00 | 94 | 1013.7 |
| 20260505070757 | 52 | 245 | 0.0 | 0.0 | 0.00 | 0.00 | 0.00 | 94 | 1013.7 |
| 20260505070254 | 52 | 246 | 0.0 | 0.0 | 0.00 | 0.00 | 0.00 | 94 | 1013.7 |
| 20260505065749 | 52 | 246 | 0.0 | 0.0 | 0.00 | 0.00 | 0.00 | 93 | 1013.7 |
| 20260505065246 | 52 | 247 | 0.0 | 0.0 | 0.00 | 0.00 | 0.00 | 93 | 1013.9 |
| 20260505064743 | 52 | 247 | 0.0 | 0.0 | 0.00 | 0.00 | 0.00 | 93 | 1013.9 |
| 20260505064240 | 53 | 246 | 0.0 | 0.0 | 0.00 | 0.00 | 0.00 | 93 | 1013.7 |
| 20260505063738 | 53 | 247 | 0.0 | 0.0 | 0.00 | 0.00 | 0.00 | 93 | 1013.7 |
| 20260505063234 | 53 | 247 | 0.0 | 0.0 | 0.00 | 0.00 | 0.00 | 92 | 1013.9 |
| 20260505062730 | 53 | 247 | 0.0 | 0.0 | 0.00 | 0.00 | 0.00 | 92 | 1013.7 |
| 20260505062228 | 53 | 244 | 0.0 | 0.0 | 0.00 | 0.00 | 0.00 | 92 | 1013.8 |
| 20260505061725 | 53 | 246 | 0.0 | 0.9 | 0.00 | 0.00 | 0.00 | 92 | 1014.0 |
| 20260505061223 | 53 | 220 | 0.9 | 0.9 | 0.00 | 0.00 | 0.00 | 92 | 1014.0 |
| 20260505060720 | 53 | 225 | 0.0 | 0.9 | 0.00 | 0.00 | 0.00 | 92 | 1014.1 |
| 20260505060217 | 53 | 238 | 0.0 | 0.0 | 0.00 | 0.00 | 0.00 | 92 | 1014.1 |
| 20260505055712 | 53 | 236 | 0.0 | 0.0 | 0.00 | 0.00 | 0.00 | 92 | 1014.2 |
| 20260505055209 | 53 | 239 | 0.0 | 0.0 | 0.00 | 0.00 | 0.00 | 92 | 1014.0 |
| 20260505054706 | 53 | 241 | 0.0 | 0.0 | 0.00 | 0.00 | 0.00 | 92 | 1014.2 |
| 20260505054204 | 53 | 240 | 0.0 | 0.0 | 0.00 | 0.00 | 0.00 | 91 | 1014.4 |
| 20260505053702 | 53 | 238 | 0.0 | 0.0 | 0.00 | 0.00 | 0.00 | 91 | 1014.2 |
| 20260505053158 | 53 | 241 | 0.0 | 0.0 | 0.00 | 0.00 | 0.00 | 91 | 1014.2 |
| 20260505052655 | 53 | 234 | 0.0 | 0.9 | 0.00 | 0.00 | 0.00 | 91 | 1014.2 |
| 20260505052152 | 53 | 239 | 0.0 | 0.0 | 0.00 | 0.00 | 0.00 | 90 | 1014.1 |
| 20260505051649 | 53 | 236 | 0.0 | 0.0 | 0.00 | 0.00 | 0.00 | 90 | 1014.3 |
| 20260505051148 | 53 | 236 | 0.0 | 0.0 | 0.00 | 0.00 | 0.00 | 89 | 1014.3 |
| 20260505050645 | 53 | 236 | 0.0 | 0.0 | 0.00 | 0.00 | 0.00 | 89 | 1014.1 |
| 20260505050144 | 53 | 236 | 0.0 | 0.0 | 0.00 | 0.00 | 0.00 | 88 | 1014.3 |
| 20260505041618 | 55 | 236 | 0.0 | 0.0 | 0.00 | 0.00 | 0.00 | 83 | 1014.5 |
| 20260505041116 | 55 | 237 | 0.0 | 0.0 | 0.00 | 0.00 | 0.00 | 83 | 1014.7 |
| 20260505040613 | 55 | 236 | 0.0 | 0.0 | 0.00 | 0.00 | 0.00 | 82 | 1014.6 |
| 20260505040110 | 55 | 227 | 0.0 | 0.0 | 0.00 | 0.00 | 0.00 | 82 | 1014.8 |
| 20260505035606 | 55 | 226 | 0.0 | 0.0 | 0.00 | 0.00 | 0.00 | 81 | 1014.6 |
| 20260505035103 | 55 | 231 | 0.0 | 0.0 | 0.00 | 0.00 | 0.00 | 80 | 1014.5 |
| 20260505034559 | 55 | 231 | 0.0 | 0.0 | 0.00 | 0.00 | 0.00 | 79 | 1014.6 |
| 20260505034056 | 56 | 231 | 0.0 | 0.0 | 0.00 | 0.00 | 0.00 | 79 | 1014.7 |
| 20260505033553 | 56 | 231 | 0.0 | 0.0 | 0.00 | 0.00 | 0.00 | 78 | 1014.4 |
| 20260505033051 | 56 | 226 | 0.0 | 0.0 | 0.00 | 0.00 | 0.00 | 77 | 1014.5 |
| 20260505032549 | 56 | 226 | 0.0 | 0.0 | 0.00 | 0.00 | 0.00 | 76 | 1014.7 |
| 20260505032045 | 57 | 231 | 0.0 | 0.0 | 0.00 | 0.00 | 0.00 | 75 | 1014.4 |
| 20260505031542 | 57 | 238 | 0.9 | 1.7 | 0.00 | 0.00 | 0.00 | 75 | 1014.5 |
| 20260505031038 | 57 | 238 | 0.0 | 0.0 | 0.00 | 0.00 | 0.00 | 75 | 1014.7 |
| 20260505030536 | 57 | 236 | 0.0 | 0.0 | 0.00 | 0.00 | 0.00 | 74 | 1014.6 |
| 20260505030032 | 57 | 233 | 0.0 | 0.0 | 0.00 | 0.00 | 0.00 | 74 | 1014.6 |
| 20260505025528 | 57 | 235 | 0.0 | 0.0 | 0.00 | 0.00 | 0.00 | 73 | 1014.9 |
| 20260505025027 | 57 | 273 | 0.0 | 0.0 | 0.00 | 0.00 | 0.00 | 72 | 1014.8 |
| 20260505024523 | 58 | 236 | 0.0 | 0.0 | 0.00 | 0.00 | 0.00 | 71 | 1014.9 |
| 20260505024020 | 58 | 240 | 0.0 | 0.0 | 0.00 | 0.00 | 0.00 | 70 | 1014.7 |
| 20260505023517 | 58 | 237 | 0.0 | 0.0 | 0.00 | 0.00 | 0.00 | 69 | 1014.8 |
| 20260505023015 | 59 | 240 | 0.0 | 0.0 | 0.00 | 0.00 | 0.00 | 68 | 1015.0 |
| 20260505022513 | 59 | 233 | 0.0 | 0.0 | 0.00 | 0.00 | 0.00 | 67 | 1014.9 |
| 20260505022010 | 60 | 235 | 0.0 | 0.0 | 0.00 | 0.00 | 0.00 | 66 | 1014.8 |
| 20260505021506 | 60 | 228 | 1.7 | 2.6 | 0.00 | 0.00 | 0.00 | 66 | 1015.1 |
| 20260505021002 | 60 | 233 | 0.0 | 2.6 | 0.00 | 0.00 | 0.00 | 66 | 1015.1 |
| 20260505020457 | 60 | 235 | 0.9 | 1.7 | 0.00 | 0.00 | 0.00 | 66 | 1015.1 |
| 20260505015954 | 60 | 214 | 0.9 | 1.7 | 0.00 | 0.00 | 0.00 | 65 | 1015.0 |
| 20260505015451 | 60 | 231 | 0.9 | 1.7 | 0.00 | 0.00 | 0.00 | 65 | 1014.9 |
| 20260505014948 | 60 | 237 | 1.7 | 5.2 | 0.00 | 0.00 | 0.00 | 65 | 1014.9 |
| 20260505014445 | 60 | 233 | 0.0 | 1.7 | 0.00 | 0.00 | 0.00 | 66 | 1014.9 |
| 20260505013942 | 60 | 235 | 0.0 | 3.5 | 0.00 | 0.00 | 0.00 | 65 | 1014.9 |
| 20260505013439 | 60 | 236 | 0.9 | 1.7 | 0.00 | 0.00 | 0.00 | 65 | 1015.0 |
| 20260505012937 | 61 | 232 | 0.0 | 1.7 | 0.00 | 0.00 | 0.00 | 64 | 1014.8 |
| 20260505012435 | 61 | 231 | 1.7 | 2.6 | 0.00 | 0.00 | 0.00 | 64 | 1014.6 |
| 20260505011931 | 61 | 215 | 1.7 | 6.1 | 0.00 | 0.00 | 0.00 | 64 | 1014.7 |
| 20260505011427 | 60 | 211 | 2.6 | 5.2 | 0.00 | 0.00 | 0.00 | 64 | 1014.4 |
| 20260505010924 | 60 | 245 | 0.0 | 0.9 | 0.00 | 0.00 | 0.00 | 65 | 1014.7 |
| 20260505010420 | 60 | 221 | 0.9 | 2.6 | 0.00 | 0.00 | 0.00 | 65 | 1014.6 |
| 20260505005916 | 61 | 245 | 0.0 | 1.7 | 0.00 | 0.00 | 0.00 | 65 | 1014.4 |
| 20260505005413 | 61 | 226 | 0.9 | 1.7 | 0.00 | 0.00 | 0.00 | 66 | 1014.5 |
| 20260505004911 | 61 | 157 | 2.6 | 3.5 | 0.00 | 0.00 | 0.00 | 66 | 1014.3 |
| 20260505004407 | 61 | 235 | 2.6 | 6.1 | 0.00 | 0.00 | 0.00 | 66 | 1014.2 |
| 20260505003904 | 61 | 222 | 0.9 | 1.7 | 0.00 | 0.00 | 0.00 | 65 | 1014.3 |
| 20260505003401 | 61 | 239 | 1.7 | 2.6 | 0.00 | 0.00 | 0.00 | 65 | 1014.3 |
| 20260505002857 | 62 | 233 | 0.9 | 1.7 | 0.00 | 0.00 | 0.00 | 64 | 1014.1 |
| 20260505002354 | 62 | 211 | 0.0 | 0.9 | 0.00 | 0.00 | 0.00 | 62 | 1014.0 |
| 20260505001853 | 62 | 215 | 0.9 | 2.6 | 0.00 | 0.00 | 0.00 | 60 | 1013.9 |
| 20260505001349 | 62 | 238 | 0.0 | 0.0 | 0.00 | 0.00 | 0.00 | 59 | 1014.0 |
| 20260505000846 | 63 | 238 | 0.0 | 1.7 | 0.00 | 0.00 | 0.00 | 58 | 1013.8 |
| 20260505000344 | 63 | 248 | 0.9 | 1.7 | 0.00 | 0.00 | 0.00 | 58 | 1013.4 |
| 20260504235840 | 63 | 202 | 0.9 | 2.6 | 0.00 | 0.00 | 0.00 | 58 | 1013.7 |
| 20260504235338 | 63 | 221 | 2.6 | 3.5 | 0.00 | 0.00 | 0.00 | 58 | 1013.5 |
| 20260504234834 | 63 | 210 | 3.5 | 5.2 | 0.00 | 0.00 | 0.00 | 58 | 1013.6 |
| 20260504234332 | 64 | 237 | 1.7 | 2.6 | 0.00 | 0.00 | 0.00 | 58 | 1013.5 |
| 20260504233828 | 64 | 172 | 2.6 | 5.2 | 0.00 | 0.00 | 0.00 | 58 | 1013.5 |
| 20260504233324 | 64 | 224 | 1.7 | 2.6 | 0.00 | 0.00 | 0.00 | 57 | 1013.3 |
| 20260504232821 | 64 | 213 | 2.6 | 6.1 | 0.00 | 0.00 | 0.00 | 56 | 1013.5 |
| 20260504232318 | 64 | 245 | 0.9 | 1.7 | 0.00 | 0.00 | 0.00 | 56 | 1013.2 |
| 20260504231815 | 65 | 211 | 3.5 | 5.2 | 0.00 | 0.00 | 0.00 | 56 | 1013.6 |
| 20260504231311 | 65 | 236 | 4.3 | 6.1 | 0.00 | 0.00 | 0.00 | 56 | 1013.2 |
| 20260504230808 | 65 | 188 | 2.6 | 5.2 | 0.00 | 0.00 | 0.00 | 57 | 1013.4 |
| 20260504230306 | 65 | 211 | 4.3 | 6.1 | 0.00 | 0.00 | 0.00 | 57 | 1013.1 |
| 20260504225804 | 65 | 243 | 2.6 | 7.0 | 0.00 | 0.00 | 0.00 | 57 | 1013.1 |
| 20260504225300 | 65 | 233 | 0.0 | 1.7 | 0.00 | 0.00 | 0.00 | 56 | 1013.0 |
| 20260504224757 | 66 | 238 | 0.9 | 6.1 | 0.00 | 0.00 | 0.00 | 56 | 1013.1 |
| 20260504224255 | 66 | 194 | 3.5 | 6.1 | 0.00 | 0.00 | 0.00 | 55 | 1013.3 |
| 20260504223751 | 66 | 214 | 5.2 | 6.1 | 0.00 | 0.00 | 0.00 | 54 | 1013.2 |
| 20260504223246 | 66 | 240 | 1.7 | 2.6 | 0.00 | 0.00 | 0.00 | 55 | 1013.1 |
| 20260504222744 | 66 | 158 | 4.3 | 7.8 | 0.00 | 0.00 | 0.00 | 54 | 1013.3 |
| 20260504222240 | 66 | 231 | 3.5 | 6.1 | 0.00 | 0.00 | 0.00 | 53 | 1013.3 |
| 20260504221738 | 66 | 224 | 5.2 | 7.0 | 0.00 | 0.00 | 0.00 | 52 | 1013.4 |
| 20260504221235 | 66 | 246 | 0.9 | 5.2 | 0.00 | 0.00 | 0.00 | 52 | 1013.1 |
| 20260504220731 | 67 | 223 | 7.0 | 9.6 | 0.00 | 0.00 | 0.00 | 51 | 1013.1 |
| 20260504220229 | 66 | 225 | 0.9 | 3.5 | 0.00 | 0.00 | 0.00 | 52 | 1013.3 |
| 20260504215726 | 67 | 1 | 1.7 | 6.1 | 0.00 | 0.00 | 0.00 | 52 | 1013.3 |
| 20260504215223 | 67 | 142 | 3.5 | 6.1 | 0.00 | 0.00 | 0.00 | 53 | 1013.3 |
| 20260504214718 | 67 | 237 | 0.9 | 5.2 | 0.00 | 0.00 | 0.00 | 55 | 1013.4 |
| 20260504214215 | 67 | 232 | 1.7 | 2.6 | 0.00 | 0.00 | 0.00 | 56 | 1013.5 |
| 20260504213712 | 67 | 37 | 3.5 | 3.5 | 0.00 | 0.00 | 0.00 | 55 | 1013.4 |
| 20260504213208 | 67 | 232 | 1.7 | 5.2 | 0.00 | 0.00 | 0.00 | 54 | 1013.6 |
| 20260504212705 | 67 | 241 | 0.9 | 3.5 | 0.00 | 0.00 | 0.00 | 55 | 1013.4 |
| 20260504212202 | 67 | 341 | 0.0 | 1.7 | 0.00 | 0.00 | 0.00 | 57 | 1013.4 |
| 20260504211659 | 68 | 216 | 1.7 | 3.5 | 0.00 | 0.00 | 0.00 | 54 | 1013.6 |
| 20260504211155 | 68 | 35 | 0.9 | 2.6 | 0.00 | 0.00 | 0.00 | 54 | 1013.4 |
| 20260504210653 | 68 | 85 | 2.6 | 3.5 | 0.00 | 0.00 | 0.00 | 53 | 1013.4 |
| 20260504210149 | 68 | 238 | 0.0 | 2.6 | 0.00 | 0.00 | 0.00 | 54 | 1013.6 |
| 20260504205647 | 68 | 156 | 1.7 | 9.6 | 0.00 | 0.00 | 0.00 | 53 | 1013.4 |
| 20260504205144 | 67 | 223 | 0.9 | 1.7 | 0.00 | 0.00 | 0.00 | 58 | 1013.3 |
| 20260504204643 | 66 | 238 | 1.7 | 3.5 | 0.00 | 0.00 | 0.00 | 57 | 1013.4 |
| 20260504204141 | 66 | 192 | 1.7 | 3.5 | 0.00 | 0.00 | 0.00 | 59 | 1013.4 |
| 20260504203639 | 66 | 235 | 1.7 | 5.2 | 0.00 | 0.00 | 0.00 | 58 | 1013.4 |
| 20260504203137 | 67 | 243 | 0.9 | 6.1 | 0.00 | 0.00 | 0.00 | 55 | 1013.3 |
| 20260504202637 | 67 | 184 | 1.7 | 7.8 | 0.00 | 0.00 | 0.00 | 55 | 1013.2 |
| 20260504202134 | 67 | 188 | 3.5 | 5.2 | 0.00 | 0.00 | 0.00 | 55 | 1013.2 |
| 20260504201631 | 67 | 210 | 3.5 | 3.5 | 0.00 | 0.00 | 0.00 | 55 | 1013.4 |
| 20260504201129 | 66 | 223 | 0.9 | 5.2 | 0.00 | 0.00 | 0.00 | 55 | 1013.4 |
| 20260504200626 | 67 | 329 | 2.6 | 5.2 | 0.00 | 0.00 | 0.00 | 54 | 1013.4 |
| 20260504200122 | 68 | 184 | 3.5 | 9.6 | 0.00 | 0.00 | 0.00 | 52 | 1013.5 |
| 20260504195618 | 68 | 243 | 2.6 | 3.5 | 0.00 | 0.00 | 0.00 | 52 | 1013.4 |
| 20260504195114 | 68 | 181 | 5.2 | 7.8 | 0.00 | 0.00 | 0.00 | 52 | 1013.6 |
| 20260504194611 | 68 | 197 | 1.7 | 3.5 | 0.00 | 0.00 | 0.00 | 53 | 1013.5 |
| 20260504194107 | 68 | 208 | 3.5 | 8.7 | 0.00 | 0.00 | 0.00 | 52 | 1013.8 |
| 20260504193603 | 69 | 296 | 2.6 | 3.5 | 0.00 | 0.00 | 0.00 | 52 | 1013.8 |
| 20260504193102 | 69 | 188 | 0.0 | 7.8 | 0.00 | 0.00 | 0.00 | 53 | 1013.6 |
| 20260504192600 | 69 | 208 | 1.7 | 3.5 | 0.00 | 0.00 | 0.00 | 53 | 1013.9 |
| 20260504192058 | 68 | 205 | 0.9 | 7.8 | 0.00 | 0.00 | 0.00 | 53 | 1013.8 |
| 20260504191556 | 70 | 232 | 5.2 | 9.6 | 0.00 | 0.00 | 0.00 | 49 | 1014.2 |
| 20260504191051 | 73 | 196 | 6.1 | 8.7 | 0.00 | 0.00 | 0.00 | 45 | 1014.0 |
| 20260504190548 | 75 | 244 | 1.7 | 7.8 | 0.00 | 0.00 | 0.00 | 30 | 1014.2 |
| 20260504190044 | 74 | 300 | 2.6 | 6.1 | 0.00 | 0.00 | 0.00 | 31 | 1014.3 |
| 20260504185541 | 74 | 278 | 0.9 | 5.2 | 0.00 | 0.00 | 0.00 | 31 | 1014.1 |
| 20260504185038 | 74 | 207 | 1.7 | 7.0 | 0.00 | 0.00 | 0.00 | 29 | 1014.4 |
| 20260504184533 | 74 | 202 | 1.7 | 3.5 | 0.00 | 0.00 | 0.00 | 30 | 1014.0 |
| 20260504184029 | 74 | 246 | 0.9 | 3.5 | 0.00 | 0.00 | 0.00 | 35 | 1013.9 |
| 20260504183526 | 73 | 244 | 1.7 | 7.8 | 0.00 | 0.00 | 0.00 | 32 | 1014.4 |
| 20260504183024 | 73 | 216 | 7.0 | 7.8 | 0.00 | 0.00 | 0.00 | 32 | 1014.5 |
| 20260504182520 | 73 | 294 | 2.6 | 7.0 | 0.00 | 0.00 | 0.00 | 32 | 1014.6 |
| 20260504182018 | 73 | 246 | 1.7 | 6.1 | 0.00 | 0.00 | 0.00 | 31 | 1014.4 |
| 20260504181515 | 72 | 204 | 1.7 | 7.8 | 0.00 | 0.00 | 0.00 | 31 | 1014.6 |
| 20260504181014 | 73 | 227 | 5.2 | 8.7 | 0.00 | 0.00 | 0.00 | 31 | 1014.9 |
| 20260504180512 | 73 | 249 | 1.7 | 9.6 | 0.00 | 0.00 | 0.00 | 36 | 1014.8 |
| 20260504180010 | 73 | 182 | 5.2 | 8.7 | 0.00 | 0.00 | 0.00 | 32 | 1014.9 |
| 20260504175507 | 73 | 200 | 6.1 | 7.8 | 0.00 | 0.00 | 0.00 | 29 | 1014.9 |
| 20260504175004 | 72 | 217 | 5.2 | 7.0 | 0.00 | 0.00 | 0.00 | 33 | 1015.1 |
| 20260504174502 | 72 | 301 | 1.7 | 9.6 | 0.00 | 0.00 | 0.00 | 32 | 1015.2 |
| 20260504173959 | 72 | 279 | 1.7 | 7.0 | 0.00 | 0.00 | 0.00 | 34 | 1015.0 |
| 20260504173455 | 72 | 191 | 2.6 | 5.2 | 0.00 | 0.00 | 0.00 | 33 | 1015.1 |
| 20260504172953 | 71 | 167 | 3.5 | 7.8 | 0.00 | 0.00 | 0.00 | 32 | 1015.0 |
| 20260504172448 | 71 | 228 | 5.2 | 11.3 | 0.00 | 0.00 | 0.00 | 34 | 1015.3 |
| 20260504171945 | 71 | 179 | 2.6 | 7.0 | 0.00 | 0.00 | 0.00 | 34 | 1015.5 |
| 20260504171443 | 70 | 248 | 7.0 | 8.7 | 0.00 | 0.00 | 0.00 | 31 | 1015.6 |
| 20260504170939 | 70 | 164 | 7.8 | 9.6 | 0.00 | 0.00 | 0.00 | 31 | 1015.5 |
| 20260504170436 | 71 | 219 | 4.3 | 13.9 | 0.00 | 0.00 | 0.00 | 34 | 1015.3 |
| 20260504160355 | 69 | 227 | 6.1 | 9.6 | 0.00 | 0.00 | 0.00 | 33 | 1016.4 |
| 20260504150820 | 68 | 201 | 1.7 | 3.5 | 0.00 | 0.00 | 0.00 | 37 | 1016.7 |
| 20260504150316 | 68 | 207 | 3.5 | 7.0 | 0.00 | 0.00 | 0.00 | 36 | 1016.8 |
| 20260504141246 | 64 | 244 | 3.5 | 8.7 | 0.00 | 0.00 | 0.00 | 39 | 1017.3 |
| 20260504140742 | 65 | 271 | 7.0 | 9.6 | 0.00 | 0.00 | 0.00 | 37 | 1017.4 |
| 20260504140238 | 65 | 252 | 2.6 | 7.8 | 0.00 | 0.00 | 0.00 | 40 | 1017.1 |
| 20260504130707 | 61 | 214 | 2.6 | 6.1 | 0.00 | 0.00 | 0.00 | 49 | 1017.9 |
| 20260504130203 | 60 | 280 | 1.7 | 7.8 | 0.00 | 0.00 | 0.00 | 51 | 1017.7 |
| 20260504120127 | 55 | 241 | 2.6 | 8.7 | 0.00 | 0.00 | 0.00 | 61 | 1018.0 |
| 20260504110554 | 52 | 239 | 3.5 | 7.8 | 0.00 | 0.00 | 0.00 | 65 | 1018.2 |
| 20260504100516 | 49 | 245 | 0.0 | 2.6 | 0.00 | 0.00 | 0.00 | 64 | 1018.2 |